Regional Weather Roundup
Issued by NWS Little Rock, AR

Home | Current Version | Previous Version | Graphics & Text | Print | Product List | Glossary On
Versions: 1 2 3 4 5 6 7 8 9 10 11 12 13 14 15 16 17 18 19 20 21 22 23 24 25 26 27 28 29 30 31 32 33 34 35 36 37 38 39 40 41 42 43 44 45 46 47 48 49 50
000
ASUS44 KLZK 230305
RWRLZK

WEATHER ROUNDUP FOR ARKANSAS
NATIONAL WEATHER SERVICE LITTLE ROCK AR
1000 PM CDT TUE AUG 22 2017

NOTE: "FAIR" INDICATES FEW OR NO CLOUDS BELOW 12,000 FEET WITH NO
SIGNIFICANT WEATHER AND/OR OBSTRUCTIONS TO VISIBILITY.

ARZ001-003-010-029-230400-
NORTHWEST ARKANSAS

CITY           SKY/WX    TMP DP  RH WIND       PRES   REMARKS
FAYETTEVILLE   CLOUDY    77  74  90 CALM      30.08R
FORT SMITH     MOCLDY    82  76  81 CALM      30.01R HX  89
HARRISON       CLOUDY    77  71  82 SE5       30.07R
BENTONVILLE    CLOUDY    75  70  83 NE6       30.08R
ROGERS         CLOUDY    75  72  90 N5        30.09R
HIGHFILL       CLOUDY    76  73  91 N7        30.08R
$$

ARZ004-005-016-230400-
NORTH CENTRAL ARKANSAS

CITY           SKY/WX    TMP DP  RH WIND       PRES   REMARKS
FLIPPIN        CLOUDY    77  66  69 CALM      30.02S
MTN HOME       CLOUDY    75  72  90 CALM      30.04R
$$

ARZ040-041-230400-
WEST CENTRAL ARKANSAS

CITY           SKY/WX    TMP DP  RH WIND       PRES   REMARKS
MENA           CLOUDY    79  79 100 CALM      30.05R
MOUNT IDA      PTCLDY    76  74  93 CALM      30.01R
$$

ARZ009-017-025-026-028-230400-
NORTHEAST ARKANSAS

CITY           SKY/WX    TMP DP  RH WIND       PRES   REMARKS
JONESBORO      CLEAR     74  73  97 CALM      30.02R
NEWPORT        CLEAR     75  72  90 NE3       30.02R
WALNUT RIDGE   CLEAR     79  70  73 CALM      30.02R
BLYTHEVILLE    CLEAR     75  72  90 W5        30.01R
$$

ARZ022-023-033-042-044-230400-
CENTRAL ARKANSAS

CITY           SKY/WX    TMP DP  RH WIND       PRES   REMARKS
LITTLE ROCK    PTCLDY    79  74  84 N8        29.99R
N LITTLE ROCK    N/A     79  72  78 NE6       30.00R
JACKSONVILLE   CLEAR     82  70  66 NE8       29.99S HX  86
CONWAY           N/A     81  75  83 E7        29.98R HX  86
SEARCY         CLEAR     79  70  74 E5        30.02R
HOT SPRINGS    CLEAR     77  74  90 N3        30.01R
RUSSELLVILLE   PTCLDY    78  75  90 CALM      30.00R
CLINTON        MOCLDY    77  73  88 CALM      30.02S
$$

ARZ036-230400-
EAST ARKANSAS

CITY           SKY/WX    TMP DP  RH WIND       PRES   REMARKS
WEST MEMPHIS   PTCLDY    77  72  84 N5        30.01R
$$

ARZ050-053-066-070-073-230400-
SOUTHWEST ARKANSAS

CITY           SKY/WX    TMP DP  RH WIND       PRES   REMARKS
ARKADELPHIA    FAIR      76  75  97 CALM      29.99S
CAMDEN         CLEAR     79  75  89 CALM      29.97S
TEXARKANA      CLEAR     79  77  94 NE3       29.99R
EL DORADO      CLEAR     78  75  90 CALM      29.99R
DE QUEEN       CLEAR     76  75  97 CALM      29.99R
$$

ARZ056-057-069-230400-
SOUTHEAST ARKANSAS

CITY           SKY/WX    TMP DP  RH WIND       PRES   REMARKS
PINE BLUFF     CLEAR     78  73  84 CALM      29.98S
MONTICELLO     CLEAR     79  76  90 CALM      29.98S

$$





USA.gov is the U.S. government's official web portal to all federal, state and local government web resources and services.